CW6318 Weather Reports


Display with metric or nautical units.
time (UTC)temp
F
wind
direction
speed
MPH
gust
MPH
rain 1hr
in
rain 24hr
in
rain mn
in
humidity
%
barometer
mb
20260903215959 57 242 0.0 1.0 0.01 0.58 0.14 76 994.5
20260903215458 57 241 0.0 4.0 0.00 0.57 0.13 76 994.5
20260903215000 57 241 0.0 4.0 0.01 0.57 0.13 76 994.5
20260903214500 57 218 0.0 3.0 0.01 0.57 0.13 76 994.5
20260903213959 57 217 2.0 3.0 0.01 0.57 0.13 76 994.5
20260903213500 57 225 0.0 2.0 0.01 0.57 0.13 76 994.4
20260903213000 57 225 0.0 1.0 0.01 0.57 0.13 76 994.5
20260903212500 57 225 0.0 0.0 0.01 0.57 0.13 76 994.5
20260903211959 58 225 0.0 0.0 0.01 0.57 0.13 76 994.4
20260903211459 58 225 0.0 0.0 0.01 0.57 0.13 76 994.4
20260903211000 58 225 0.0 1.0 0.01 0.57 0.13 76 994.4
20260903210001 58 225 0.0 2.0 0.02 0.57 0.13 76 994.4
20260903205459 58 225 0.0 4.0 0.02 0.64 0.13 75 994.4
20260903204959 58 232 3.0 3.0 0.01 0.63 0.12 75 994.3
20260903204459 59 241 0.0 3.0 0.01 0.63 0.12 74 994.3
20260903204002 59 250 2.0 5.0 0.01 0.63 0.12 74 994.2
20260903203500 58 220 5.0 5.0 0.01 0.63 0.12 74 994.3
20260903203002 58 246 1.0 5.0 0.01 0.63 0.12 75 994.2
20260903202500 58 251 1.0 5.0 0.02 0.63 0.12 74 994.1
20260903202002 59 219 3.0 6.0 0.02 0.63 0.12 73 994.1
20260903201459 60 241 3.0 6.0 0.02 0.63 0.12 72 994.1
20260903201001 62 236 6.0 10.0 0.02 0.63 0.12 68 994.2
20260903200504 64 252 3.0 3.0 0.02 0.63 0.12 60 994.1
20260903200002 63 42 0.0 2.0 0.01 0.67 0.11 65 994.0
20260903195000 65 321 0.0 3.0 0.02 0.67 0.11 61 994.0
20260903194001 65 88 0.0 3.0 0.02 0.67 0.11 62 994.0
20260903193459 64 88 0.0 4.0 0.02 0.67 0.11 64 994.0
20260903192959 64 55 0.0 4.0 0.02 0.67 0.11 61 994.2
20260903192500 64 56 0.0 3.0 0.02 0.66 0.10 70 994.3
20260903191959 63 57 0.0 3.0 0.02 0.66 0.10 69 994.4
20260903191459 63 270 0.0 2.0 0.02 0.66 0.10 72 994.5
20260903190959 63 137 0.0 2.0 0.02 0.66 0.10 73 994.6
20260903190459 62 40 1.0 3.0 0.02 0.66 0.10 69 994.6
20260903190006 62 30 0.0 7.0 0.03 0.66 0.10 73 994.7
20260903185500 62 28 0.0 7.0 0.02 0.69 0.09 73 994.8
20260903185000 62 38 0.0 2.0 0.02 0.69 0.09 75 994.7
20260903184500 61 42 0.0 2.0 0.02 0.69 0.09 76 994.8
20260903184003 60 192 0.0 0.0 0.02 0.69 0.09 74 994.8
20260903183500 59 192 0.0 0.0 0.03 0.69 0.09 76 994.8
20260903183003 59 192 0.0 0.0 0.03 0.69 0.09 77 994.9
20260903182501 59 192 0.0 0.0 0.02 0.68 0.08 76 994.9
20260903181503 58 192 0.0 3.0 0.03 0.68 0.08 76 994.8
20260903181003 58 192 0.0 3.0 0.03 0.68 0.08 76 994.9
20260903180506 58 139 0.0 0.0 0.03 0.68 0.08 71 994.9
20260903180004 58 139 0.0 1.0 0.02 0.67 0.07 74 994.8
20260903175500 58 138 0.0 1.0 0.02 0.67 0.07 73 994.7
20260903175004 58 139 0.0 2.0 0.02 0.67 0.07 72 994.8
20260903173958 57 171 0.0 4.0 0.01 0.66 0.06 69 994.8
20260903172959 53 192 0.0 0.0 0.01 0.66 0.06 59 994.9
20260903172504 53 192 0.0 0.0 0.01 0.66 0.06 55 994.9
20260903172002 53 192 0.0 0.0 0.01 0.66 0.06 52 994.9
20260903170007 52 192 0.0 2.0 0.00 0.65 0.05 51 995.0
20260903165501 52 232 0.0 0.0 0.00 0.65 0.05 51 995.0
20260903165000 51 232 0.0 0.0 0.00 0.65 0.05 52 995.0
20260903164458 50 232 0.0 0.0 0.00 0.65 0.05 52 995.1
20260903163959 50 232 0.0 0.0 0.00 0.65 0.05 52 995.2
20260903163459 50 232 0.0 0.0 0.00 0.65 0.05 53 995.2
20260903163002 49 232 0.0 0.0 0.00 0.65 0.05 53 995.2
20260903162501 49 232 0.0 0.0 0.00 0.65 0.05 53 995.2
20260903160459 48 232 0.0 0.0 0.00 0.65 0.05 55 995.4
20260903155501 47 232 0.0 0.0 0.00 0.65 0.05 55 995.5
20260903155003 47 232 0.0 0.0 0.00 0.65 0.05 55 995.5
20260903154501 47 232 0.0 0.0 0.00 0.65 0.05 55 995.4
20260903153959 47 232 0.0 0.0 0.00 0.65 0.05 55 995.3
20260903153459 47 232 0.0 0.0 0.00 0.65 0.05 56 995.3
20260903152501 47 232 0.0 0.0 0.00 0.65 0.05 56 995.4
20260903151959 47 232 0.0 0.0 0.00 0.65 0.05 56 995.4
20260903151459 47 232 0.0 0.0 0.00 0.65 0.05 56 995.4
20260903150959 47 232 0.0 0.0 0.00 0.65 0.05 56 995.3
20260903150000 47 232 0.0 0.0 0.01 0.65 0.05 56 995.3
20260903145501 47 232 0.0 0.0 0.01 0.65 0.05 56 995.2
20260903144459 47 232 0.0 0.0 0.01 0.65 0.05 56 995.2
20260903143959 47 232 0.0 0.0 0.01 0.65 0.05 56 995.2
20260903143459 47 232 0.0 0.0 0.01 0.65 0.05 56 995.1
20260903141959 46 232 0.0 0.0 0.01 0.65 0.05 56 994.9
20260903141500 47 232 0.0 0.0 0.01 0.65 0.05 56 994.9
20260903140959 47 232 0.0 0.0 0.01 0.65 0.05 56 995.0
20260903140500 46 232 0.0 0.0 0.01 0.65 0.05 57 995.0
20260903140001 46 232 0.0 0.0 0.00 0.64 0.04 57 995.0
20260903135501 46 232 0.0 0.0 0.00 0.64 0.04 57 995.1
20260903135000 46 232 0.0 0.0 0.00 0.64 0.04 57 995.1
20260903134000 46 232 0.0 0.0 0.00 0.64 0.04 57 995.0
20260903133459 46 232 0.0 0.0 0.00 0.64 0.04 57 994.9
20260903132000 46 232 0.0 0.0 0.00 0.64 0.04 57 994.8
20260903131500 46 232 0.0 0.0 0.00 0.64 0.04 57 994.8
20260903130959 46 232 0.0 0.0 0.00 0.64 0.04 57 994.9
20260903130501 46 232 0.0 0.0 0.00 0.64 0.04 57 994.8
20260903130002 46 232 0.0 0.0 0.00 0.64 0.04 57 994.7
20260903125459 46 232 0.0 0.0 0.00 0.64 0.04 57 994.7
20260903124959 46 232 0.0 0.0 0.00 0.64 0.04 57 994.7
20260903124502 46 232 0.0 0.0 0.00 0.64 0.04 57 994.7
20260903124000 46 232 0.0 0.0 0.00 0.64 0.04 57 994.7
20260903123001 46 232 0.0 0.0 0.00 0.64 0.04 57 994.7
20260903121501 46 232 0.0 0.0 0.01 0.64 0.04 57 994.7
20260903121001 47 232 0.0 0.0 0.01 0.64 0.04 57 994.7
20260903115959 46 232 0.0 0.0 0.01 0.64 0.04 57 994.9
20260903115500 46 232 0.0 0.0 0.01 0.64 0.04 57 994.8
20260903114958 46 232 0.0 0.0 0.01 0.64 0.04 58 994.9
20260903114501 46 232 0.0 0.0 0.01 0.64 0.04 58 994.8
20260903114000 46 232 0.0 1.0 0.01 0.64 0.04 58 994.9
20260903113501 46 232 0.0 1.0 0.01 0.64 0.04 58 994.9
20260903112959 46 232 0.0 0.0 0.01 0.64 0.04 58 994.9
20260903112459 46 232 0.0 0.0 0.01 0.64 0.04 58 994.9
20260903111959 46 232 0.0 0.0 0.00 0.63 0.03 58 994.9
20260903111459 46 232 0.0 0.0 0.00 0.63 0.03 58 994.8
20260903111001 46 232 0.0 0.0 0.00 0.63 0.03 58 994.7
20260903110004 46 232 0.0 0.0 0.00 0.63 0.03 58 994.7
20260903105504 46 232 0.0 0.0 0.00 0.63 0.03 58 994.7
20260903104959 46 232 0.0 0.0 0.00 0.63 0.03 58 994.7
20260903104503 46 232 0.0 0.0 0.00 0.63 0.03 58 994.7
20260903104001 46 232 0.0 0.0 0.00 0.63 0.03 58 994.7
20260903103501 47 232 0.0 0.0 0.01 0.63 0.03 58 994.7
20260903102502 47 232 0.0 0.0 0.01 0.63 0.03 58 994.7
20260903102000 47 232 0.0 0.0 0.01 0.63 0.03 58 994.6
20260903101002 47 232 0.0 0.0 0.01 0.63 0.03 58 994.5
20260903095500 47 232 0.0 0.0 0.01 0.63 0.03 58 994.5
20260903095001 47 232 0.0 0.0 0.01 0.63 0.03 58 994.5
20260903094501 47 232 0.0 0.0 0.01 0.63 0.03 58 994.5
20260903093959 47 232 0.0 0.0 0.01 0.63 0.03 58 994.4
20260903092501 47 232 0.0 0.0 0.01 0.62 0.02 58 994.5
20260903091959 47 232 0.0 0.0 0.01 0.62 0.02 58 994.5
20260903091459 47 232 0.0 0.0 0.01 0.62 0.02 58 994.5
20260903090459 47 232 0.0 0.0 0.01 0.62 0.02 58 994.5
20260903085459 47 232 0.0 0.0 0.01 0.62 0.02 58 994.5
20260903084959 47 232 0.0 0.0 0.01 0.62 0.02 58 994.5
20260903084458 47 232 0.0 0.0 0.01 0.62 0.02 58 994.5
20260903084000 47 232 0.0 0.0 0.01 0.62 0.02 58 994.6
20260903083500 47 232 0.0 0.0 0.01 0.62 0.02 58 994.7
20260903083001 47 232 0.0 0.0 0.02 0.62 0.02 59 994.7
20260903082500 47 232 0.0 0.0 0.01 0.61 0.01 59 994.7
20260903081458 47 232 0.0 0.0 0.01 0.61 0.01 59 994.7
20260903080959 47 232 0.0 0.0 0.01 0.61 0.01 59 994.8
20260903080500 47 232 0.0 0.0 0.01 0.61 0.01 59 994.8
20260903080002 47 232 0.0 0.0 0.01 0.61 0.01 59 994.7
20260903075000 47 232 0.0 0.0 0.01 0.61 0.01 60 994.6
20260903074458 47 232 0.0 0.0 0.02 0.61 0.01 60 994.7
20260903073459 47 232 0.0 0.0 0.02 0.61 0.01 60 994.8
20260903072959 47 232 0.0 0.0 0.01 0.60 0.00 60 994.6
20260903072459 47 232 0.0 0.0 0.01 0.60 0.00 60 994.6
20260903071959 47 232 0.0 0.0 0.01 0.60 0.00 60 994.5
20260903071459 47 232 0.0 0.0 0.01 0.60 0.00 60 994.5
20260903070459 47 232 0.0 0.0 0.02 0.60 0.00 61 994.4
20260903070004 47 232 0.0 0.0 0.02 0.60 0.00 61 994.4
20260903065500 47 232 0.0 0.0 0.02 0.60 0.60 61 994.4
20260903065001 47 232 0.0 0.0 0.02 0.60 0.60 61 994.3
20260903063501 47 232 0.0 0.0 0.02 0.59 0.59 61 994.3
20260903063001 47 232 0.0 0.0 0.02 0.59 0.59 61 994.3
20260903062501 48 232 0.0 0.0 0.02 0.59 0.59 61 994.4
20260903062002 48 232 0.0 0.0 0.02 0.59 0.59 62 994.4
20260903061500 48 232 0.0 0.0 0.02 0.59 0.59 62 994.4
20260903061001 48 232 0.0 0.0 0.02 0.59 0.59 62 994.4
20260903060002 48 232 0.0 0.0 0.02 0.58 0.58 62 994.4
20260903055500 48 232 0.0 0.0 0.02 0.58 0.58 62 994.4
20260903055000 48 232 0.0 0.0 0.02 0.58 0.58 62 994.4
20260903054502 48 232 0.0 0.0 0.03 0.58 0.58 62 994.5
20260903053959 48 232 0.0 0.0 0.03 0.58 0.58 62 994.5
20260903053500 48 232 0.0 0.0 0.02 0.57 0.57 62 994.4
20260903052502 49 232 0.0 0.0 0.02 0.57 0.57 61 994.4
20260903052000 49 232 0.0 0.0 0.03 0.57 0.57 61 994.3
20260903051505 49 232 0.0 0.0 0.03 0.57 0.57 61 994.3
20260903051000 49 232 0.0 0.0 0.03 0.57 0.57 61 994.3
20260903050503 49 232 0.0 0.0 0.03 0.56 0.56 61 994.3
20260903050000 49 232 0.0 0.0 0.03 0.56 0.56 61 994.2
20260903045500 49 232 0.0 0.0 0.03 0.56 0.56 61 994.2
20260903044501 49 232 0.0 0.0 0.03 0.55 0.55 60 994.1
20260903044000 49 232 0.0 0.0 0.03 0.55 0.55 60 994.0
20260903043500 50 232 0.0 0.0 0.03 0.55 0.55 60 994.0
20260903042959 50 232 0.0 0.0 0.04 0.55 0.55 60 993.9
20260903042002 50 232 0.0 0.0 0.03 0.54 0.54 60 994.0
20260903041500 50 232 0.0 0.0 0.04 0.54 0.54 60 994.1
20260903041003 50 232 0.0 0.0 0.04 0.54 0.54 60 993.9
20260903040500 50 232 0.0 0.0 0.03 0.53 0.53 60 993.7
20260903040000 50 232 0.0 0.0 0.04 0.53 0.53 60 993.8
20260903035459 50 232 0.0 0.0 0.04 0.53 0.53 60 993.9
20260903033500 50 232 0.0 0.0 0.05 0.52 0.52 60 993.6
20260903033001 50 232 0.0 0.0 0.04 0.51 0.51 60 993.6
20260903032459 50 232 0.0 0.0 0.05 0.51 0.51 60 993.6
20260903031001 51 232 0.0 0.0 0.05 0.50 0.50 59 993.4
20260903024501 51 232 0.0 1.0 0.06 0.48 0.48 59 993.3
20260903024001 51 232 0.0 0.0 0.07 0.48 0.48 59 993.2
20260903023500 51 232 0.0 0.0 0.06 0.47 0.47 59 993.3
20260903022500 52 232 0.0 0.0 0.06 0.46 0.46 59 993.0
20260903022001 52 232 0.0 0.0 0.07 0.46 0.46 59 993.1
20260903021501 52 232 0.0 4.0 0.06 0.45 0.45 59 993.0
20260903021000 52 232 0.0 4.0 0.07 0.45 0.45 59 992.9
20260903020459 52 244 0.0 2.0 0.06 0.44 0.44 59 992.7
20260903020001 52 244 0.0 4.0 0.07 0.44 0.44 59 992.6
20260903015500 52 241 1.0 4.0 0.06 0.43 0.43 60 992.5
20260903015002 52 232 1.0 5.0 0.07 0.43 0.43 60 992.5
20260903014500 53 265 0.0 5.0 0.06 0.42 0.42 59 992.4
20260903014001 53 356 1.0 4.0 0.06 0.41 0.41 59 992.3
20260903013500 53 244 0.0 4.0 0.06 0.41 0.41 59 992.2
20260903013000 53 238 0.0 4.0 0.05 0.40 0.40 58 992.2
20260903012500 54 225 0.0 4.0 0.06 0.40 0.40 57 992.1
20260903011959 54 247 1.0 2.0 0.05 0.39 0.39 56 992.0
20260903011000 54 229 0.0 0.0 0.06 0.38 0.38 56 991.6
20260903010500 54 229 0.0 0.0 0.06 0.38 0.38 57 991.6
20260903010002 54 230 0.0 0.0 0.05 0.37 0.37 57 991.7
20260903005000 54 230 0.0 0.0 0.06 0.36 0.36 57 991.8
20260903004459 54 230 0.0 0.0 0.06 0.36 0.36 58 991.7
20260903003959 54 230 0.0 0.0 0.06 0.35 0.35 58 991.7
20260903003459 54 229 0.0 0.0 0.06 0.35 0.35 58 991.7
20260903002959 54 230 0.0 0.0 0.07 0.35 0.35 58 991.7
20260903002459 54 229 0.0 0.0 0.07 0.34 0.34 58 991.6
20260903001459 54 230 0.0 0.0 0.07 0.33 0.33 58 991.7
20260903000959 54 229 0.0 0.0 0.06 0.32 0.32 58 991.6
20260903000500 54 230 0.0 0.0 0.07 0.32 0.32 59 991.7
20260903000000 54 229 0.0 0.0 0.06 0.31 0.31 59 991.6
20260902233501 55 230 0.0 0.0 0.06 0.29 0.29 59 991.5
20260902232959 55 230 0.0 0.0 0.05 0.28 0.28 59 991.5
20260902232500 55 230 0.0 0.0 0.05 0.27 0.27 59 991.5
20260902232001 55 230 0.0 0.0 0.05 0.27 0.27 60 991.5
20260902231500 55 230 0.0 0.0 0.04 0.26 0.26 60 991.5
20260902230500 55 230 0.0 0.0 0.04 0.25 0.25 60 991.4
20260902225500 55 230 0.0 0.0 0.04 0.25 0.25 60 991.5
20260902225002 55 229 0.0 0.0 0.04 0.24 0.24 61 991.5
20260902224459 55 230 0.0 0.0 0.04 0.24 0.24 61 991.5
20260902223959 55 230 0.0 0.0 0.03 0.23 0.23 61 991.4
20260902223459 55 230 0.0 0.0 0.04 0.23 0.23 61 991.4
20260902223000 55 230 0.0 1.0 0.04 0.23 0.23 61 991.5
20260902222500 55 230 0.0 0.0 0.04 0.22 0.22 61 991.6
20260902221959 55 230 0.0 0.0 0.04 0.22 0.22 62 991.6
20260902221500 56 230 0.0 0.0 0.05 0.22 0.22 63 991.5
20260902220459 56 229 0.0 0.0 0.05 0.21 0.21 63 991.4